Regional Weather Roundup
Issued by NWS Green Bay, WI

Home | Current Version | Previous Version | Text Only | Print | Product List | Glossary On
Versions: 1 2 3 4 5 6 7 8 9 10 11 12 13 14 15 16 17 18 19 20 21 22 23 24 25 26 27 28 29 30 31 32 33 34 35 36 37 38 39 40 41 42 43 44 45 46 47 48 49 50
000
ASUS43 KGRB 290311
RWRGRB

NORTH-CENTRAL AND NORTHEAST WISCONSIN REGIONAL WEATHER ROUNDUP
NATIONAL WEATHER SERVICE GREEN BAY WI
1000 PM CDT THU JUL 28 2016

WIZ005-009-010>012-018-019-290400-
NORTH CENTRAL WISCONSIN

CITY           SKY/WX    TMP DP  RH WIND       PRES   REMARKS
IRONWOOD       CLOUDY    54  52  94 CALM      30.08R
MANITOWISH WTR CLEAR     58  55  90 NE5       30.10R
ARBOR VITAE    CLEAR     62  54  75 NE3       30.09S
EAGLE RIVER    CLEAR     57  49  75 N3        30.09R
LAND O LAKES   PTCLDY    55  51  86 CALM      30.11R
RHINELANDER    CLEAR     61  51  70 NE6       30.08R
PHILLIPS       CLEAR     60  55  83 NE7       30.08R
ANTIGO         CLOUDY    63  57  82 CALM      30.06S
TOMAHAWK       PTCLDY    61  53  72 NE3       30.07S
MERRILL        CLOUDY    66  61  84 NE5       30.06R
$$

WIZ013-073-290400-
NORTHEAST WISCONSIN

CITY           SKY/WX    TMP DP  RH WIND       PRES   REMARKS
IRON MOUNTAIN  PTCLDY    59  51  75 N3        30.05S
MARINETTE        N/A    N/A N/A N/A N8        30.03
OCONTO         MOCLDY    64  60  85 NE9       30.01S
$$

WIZ017-030-035>037-045-290400-
CENTRAL WISCONSIN

CITY           SKY/WX    TMP DP  RH WIND       PRES   REMARKS
MEDFORD        CLOUDY    65  65 100 NE8       30.05R
WAUSAU         CLOUDY    66  62  87 NE3       30.03R
MOSINEE        LGT RAIN  64  63  94 NE5       30.04S
MARSHFIELD     CLOUDY    65  61  87 NE6       30.03R
WISC RAPIDS    CLOUDY    66  59  78 E8        30.02S
STEVENS POINT  CLOUDY    62  61  97 NE3       30.03R
WAUPACA        CLOUDY    67  64  88 N3        30.01S
SHAWANO        CLOUDY    70  64  80 NE10      30.02R
CLINTONVILLE   CLOUDY    66  61  82 NE3       30.01S
WAUTOMA        CLOUDY    66  61  84 NE6       30.00
$$

WIZ038-039-048-051-290400-
FOX VALLEY

CITY           SKY/WX    TMP DP  RH WIND       PRES   REMARKS
NWS GREEN BAY  MOCLDY    67  64  90 NE12      30.00R
APPLETON       MOCLDY    66  59  77 N7        29.99R
OSHKOSH        CLOUDY    69  58  67 E10       29.99R
FOND DU LAC    CLOUDY    68  57  68 NE10      29.99R
$$

WIZ022-050-052-290400-
EAST CENTRAL WISCONSIN

CITY           SKY/WX    TMP DP  RH WIND       PRES   REMARKS
EPHRAIM        CLOUDY    65  57  75 N12G20    30.01S
WASHINGTON ISL NOT AVBL
STURGEON BAY   CLOUDY    66  59  78 N13       30.01S
MANITOWOC      LGT RAIN  65  62  90 NE5       29.99R
SHEBOYGAN      CLOUDY    65  59  81 NE16      29.97S
$$

LMZ563-521-522-541>543-290400-
LAKESHORE

STATION/POSITION TIME  TEMP    WIND        PRES    VSBY  WAVE
                       AIR SEA DIR/SP/G                  HT/PER
                 (UTC) (F)     (DEG/KT/KT) (MB)    (MI)  (FT/S)
SHEBOYGAN LKSHOR 0300   62      10/ 15/ 16 1015.3R
KEWAUNEE LKSHORE 0200                      1014.9
ALGOMA MARINA    0228           30/  9/ 13   N/A
NORTHPORT PIER   0200   69      10/ 16/ 20 1016.3R
N MID LAKE BUOY  0250   67 70   10/ 19/ 21 1015.3R         3/ 4
CHAMBERS ISLAND  0200   69     350/ 19/ 23 1016.3R
MENOMINEE LKSHOR 0200                      1015.4
$$



USA.gov is the U.S. government's official web portal to all federal, state and local government web resources and services.